Regional Weather Roundup
Issued by NWS

Home | Current Version | Previous Version | Text Only | Print | Product List | Glossary On
Versions: 1 2 3 4 5 6 7 8 9 10 11 12 13 14 15 16 17 18 19 20 21 22 23 24 25 26 27 28 29 30 31 32 33 34 35 36 37 38 39 40 41 42 43 44 45 46 47 48 49 50
000
ASUS43 KFSD 151702
RWRSD

WEATHER ROUNDUP FOR SOUTH DAKOTA
NATIONAL WEATHER SERVICE SIOUX FALLS SD
1200 PM CDT MON SEP 15 2014

NOTE: "FAIR" INDICATES FEW OR NO CLOUDS BELOW 12,000 FEET WITH NO
SIGNIFICANT WEATHER AND/OR OBSTRUCTIONS TO VISIBILITY.


SDZ001>005-009-010-012>017-151800-
NORTHWEST AND NORTH CENTRAL SOUTH DAKOTA

CITY           SKY/WX    TMP DP  RH WIND       PRES   REMARKS
FAITH            N/A     58  39  49 S8        30.28F
MOBRIDGE       SUNNY     58  37  45 SW5       30.26F
$$

SDZ012>016-024>037-041>051-057-063-072>074-151800-
SOUTHWEST AND SOUTH CENTRAL SOUTH DAKOTA

CITY           SKY/WX    TMP DP  RH WIND       PRES   REMARKS
RAPID CTY ARPT SUNNY     57  42  57 S12       30.29S
PIERRE         SUNNY     58  39  49 NW6       30.30S
CUSTER         SUNNY     57  38  48 VRB6      30.30S
ELLSWORTH AFB  SUNNY     57  43  58 S15       30.27F
PHILIP         SUNNY     59  37  44 MISG      30.30F
PINE RIDGE     SUNNY     58  41  53 VRB6      30.31F
WINNER         FAIR      59  34  39 VRB5      30.32S
$$

SDZ004>011-016>023-039-040-151800-
NORTHEAST SOUTH DAKOTA

CITY           SKY/WX    TMP DP  RH WIND       PRES   REMARKS
ABERDEEN       SUNNY     58  37  45 N8        30.29S
WATERTOWN      PTSUNNY   54  36  50 N8        30.27S
SISSETON         N/A     60  31  33 N8        30.26F
$$

SDZ017-020-022-023-036>040-048>070-151800-
SOUTHEAST SOUTH DAKOTA

CITY           SKY/WX    TMP DP  RH WIND       PRES   REMARKS
SIOUX FALLS    PTSUNNY   58  45  62 NE12      30.27R
HURON          SUNNY     60  37  42 N14       30.28F
CHAMBERLAIN    SUNNY     57  37  47 CALM      30.31S
MITCHELL       SUNNY     59  38  45 NW10      30.30S
YANKTON        MOSUNNY   59  43  55 N15       30.28S
$$

ABBREVIATIONS USED IN REMARKS
   TC - TEMPERATURE IN CELSIUS
  WCI - WIND CHILL INDEX
   HX - HEAT INDEX
  VSB - VISIBILITY



USA.gov is the U.S. government's official web portal to all federal, state and local government web resources and services.